Location: Gwatt
(46.7204°N, 7.6223°E)
Time: 01:08:51
(UTC+00:00)

Envisat - Pass Details

Date: 29 November 2020
Orbit: 764 x 766 km, 98.1° (Epoch: 19 January)

Event Time Altitude Azimuth Distance (km) Brightness Sun altitude
Rises 16:09:30 0° 157° (SSE) 3,220 6.3 -4.6°
Reaches altitude 10° 16:11:48 10° 155° (SSE) 2,298 5.5 -5.0°
Maximum altitude 16:16:50 69° 73° (ENE) 822 3.0 -5.7°
Drops below altitude 10° 16:21:54 10° 351° (N) 2,315 5.3 -6.5°
Sets 16:24:14 0° 349° (N) 3,246 6.1 -6.9°
